User: anonymous   Login
Location: Koussan�
(15.2012°N, 12.5548°W)
Time: 09:45:35
(UTC+00:00)
Language:

Atlas Centaur 2 - Orbit

View from above orbital plane
View from above orbital plane
View from above satellite
View from above satellite

Ground track
Ground track

The orbit data is extracted from the following two-line orbital elements,

1   694U 63047A   21019.05356263  .00000405  00000-0  36780-4 0  9999
2   694  30.3591 143.6165 0585478 258.9029  94.5220 14.02740315867011
Epoch (UTC): 19 January 2021 01:17:07
Eccentricity: 0.0585478
inclination: 30.3591°
perigee height: 459 km
apogee height: 1309 km
right ascension of ascending node: 143.6165°
argument of perigee: 258.9029°
revolutions per day: 14.02740315
mean anomaly at epoch: 94.5220°
orbit number at epoch: 86701

The dashed part of the orbit path shows where the satellite is in the earth's shadow,  

DLR